Santa Monica, CA

7:21 AM PDT on September 29, 2016 (GMT -0700)
Santa Monica Municipal

Weather History for KSMO - March, 2013

Change the Weather History Date:

Thursday, March 21, 2013

  Actual Average Record
Temperature  
Mean Temperature 60 °F -  
Max Temperature 68 °F 71 °F 86 °F (1986)
Min Temperature 54 °F 49 °F 39 °F (1948)
Degree Days  
Heating Degree Days 5    
Growing Degree Days 10 (Base 50)    
Moisture  
Dew Point 51 °F    
Average Humidity 76    
Maximum Humidity 93    
Minimum Humidity 60    
Precipitation  
Precipitation 0.00 in - - ()
Sea Level Pressure  
Sea Level Pressure 29.88 in    
Wind  
Wind Speed 2 mph (SSW)    
Max Wind Speed 9 mph    
Max Gust Speed 17 mph    
Visibility 9 miles    
Events      
Averages and records for this station are not official NWS values.
T = Trace of Precipitation, MM = Missing Value Source: NWS Daily Summary

Daily Weather History Graph

Daily Weather History Graph

Search for Another Location

Airport or City:

Trip Planner

Search our weather history database for the weather conditions in past years. The results will help you decide how hot, cold, wet, or windy it might be!

Date:

Astronomy

Mar. 21, 2013 Rise Set
Actual Time 6:55 AM PDT 7:06 PM PDT
Civil Twilight 6:30 AM PDT 7:31 PM PDT
Nautical Twilight 6:01 AM PDT 8:00 PM PDT
Astronomical Twilight 5:32 AM PDT 8:30 PM PDT
Moon 1:53 PM PDT (3/21) 3:07 AM PDT (3/21)
Length of Visible Light 13h 00m
Length of Day
12h 10m
Waxing Gibbous, 69% of the Moon is Illuminated
Mar 21
Waxing Gibbous
Mar 27
Full
Apr 2
Last Quarter
Apr 10
New
Apr 18
First Quarter

Hourly Weather History & Observations

Time (PDT) Temp. Dew Point Humidity Pressure Visibility Wind Dir Wind Speed Gust Speed Precip Events Conditions
12:51 AM 55.9 °F 48.9 °F 77% 29.95 in 10.0 mi Calm Calm - N/A   Clear
2:51 AM 55.0 °F 48.9 °F 80% 29.93 in 10.0 mi NE 3.5 mph - N/A   Clear
3:51 AM 55.0 °F 48.9 °F 80% 29.91 in 10.0 mi Calm Calm - N/A   Clear
4:51 AM 54.0 °F 50.0 °F 86% 29.91 in 10.0 mi Calm Calm - N/A   Clear
5:51 AM 54.0 °F 50.0 °F 86% 29.89 in 10.0 mi Calm Calm - N/A   Clear
6:51 AM 54.0 °F 50.0 °F 86% 29.90 in 9.0 mi Calm Calm - N/A   Clear
7:51 AM 54.0 °F 52.0 °F 93% 29.91 in 6.0 mi Calm Calm - N/A   Clear
8:51 AM 59.0 °F 52.0 °F 78% 29.92 in 8.0 mi ESE 5.8 mph - N/A   Partly Cloudy
9:51 AM 62.1 °F 52.0 °F 70% 29.93 in 10.0 mi Calm Calm - N/A   Scattered Clouds
10:51 AM 64.0 °F 50.0 °F 60% 29.92 in 10.0 mi SE 3.5 mph - N/A   Clear
12:51 PM 66.0 °F 52.0 °F 60% 29.90 in 9.0 mi SSW 9.2 mph - N/A   Clear
1:51 PM 64.0 °F 53.1 °F 67% 29.88 in 8.0 mi SW 8.1 mph - N/A   Clear
2:51 PM 64.9 °F 52.0 °F 63% 29.86 in 10.0 mi Variable 5.8 mph - N/A   Clear
3:51 PM 64.9 °F 51.1 °F 61% 29.84 in 10.0 mi WSW 6.9 mph - N/A   Clear
4:51 PM 63.0 °F 52.0 °F 67% 29.83 in 10.0 mi SW 9.2 mph 17.3 mph N/A   Clear
5:51 PM 62.1 °F 52.0 °F 70% 29.82 in 10.0 mi SSW 9.2 mph - N/A   Clear
6:51 PM 60.1 °F 53.1 °F 78% 29.82 in 10.0 mi WSW 5.8 mph - N/A   Partly Cloudy
7:51 PM 57.9 °F 51.1 °F 78% 29.82 in 10.0 mi Calm Calm - N/A   Clear
8:51 PM 57.9 °F 51.1 °F 78% 29.82 in 10.0 mi Calm Calm - N/A   Clear
9:51 PM 59.0 °F 51.1 °F 75% 29.84 in 10.0 mi Calm Calm - N/A   Clear
10:51 PM 57.0 °F 52.0 °F 83% 29.84 in 8.0 mi SSW 4.6 mph - N/A   Clear
11:51 PM 55.9 °F 52.0 °F 87% 29.83 in 8.0 mi Calm Calm - N/A   Clear